Greybull, WY

4:49 AM MST on December 07, 2019 (GMT -0700)
South Big Horn County

Weather History for KGEY - October, 2019

Change the Weather History Date:

Thursday, October 17, 2019

  Actual Average Record
Temperature  
Mean Temperature 56 °F 46 °F  
Max Temperature 76 °F 60 °F 79 °F (2003)
Min Temperature 36 °F 32 °F 21 °F (1999)
Degree Days  
Heating Degree Days 9 19  
Month to date heating degree days 377 277  
Since 1 July heating degree days 552 508  
Cooling Degree Days 0 0  
Month to date cooling degree days 0 0  
Year to date cooling degree days 733 669  
Growing Degree Days 5 (Base 50)    
Moisture  
Dew Point 31 °F    
Average Humidity 51    
Maximum Humidity 85    
Minimum Humidity 16    
Precipitation  
Precipitation 0.03 in 0.02 in 0.36 in (2007)
Month to date precipitation 0.29 0.42  
Year to date precipitation 7.61 6.75  
Sea Level Pressure  
Sea Level Pressure 29.59 in    
Wind  
Wind Speed 7 mph (WNW)    
Max Wind Speed 26 mph    
Max Gust Speed 38 mph    
Visibility 10 miles    
Events      
T = Trace of Precipitation, MM = Missing Value Source: NWS Daily Summary

Daily Weather History Graph

Daily Weather History Graph

Search for Another Location

Airport or City:

Astronomy

Oct. 17, 2019 Rise Set
Actual Time 7:29 AM MDT 6:24 PM MDT
Civil Twilight 7:00 AM MDT 6:54 PM MDT
Nautical Twilight 6:26 AM MDT 7:27 PM MDT
Astronomical Twilight 5:52 AM MDT 8:01 PM MDT
Moon 8:50 PM MDT (10/17) 11:11 AM MDT (10/17)
Length of Visible Light 11h 53m
Length of Day
10h 54m
Waning Gibbous, 86% of the Moon is Illuminated
Oct 17
Waning Gibbous
Oct 21
Last Quarter
Oct 27
New
Nov 4
First Quarter
Nov 12
Full

Hourly Weather History & Observations

Time (MDT) Temp. Windchill Dew Point Humidity Pressure Visibility Wind Dir Wind Speed Gust Speed Precip Events Conditions
12:53 AM 41.0 °F - 34.0 °F 76% 29.82 in 10.0 mi Calm Calm - N/A   Clear
1:53 AM 37.9 °F - 32.0 °F 79% 29.80 in 10.0 mi Calm Calm - N/A   Clear
2:53 AM 39.0 °F 36.8 °F 33.1 °F 79% 29.78 in 10.0 mi SW 3.5 mph - N/A   Clear
3:53 AM 37.0 °F 34.5 °F 33.1 °F 86% 29.75 in 10.0 mi SSE 3.5 mph - N/A   Clear
4:53 AM 37.0 °F 33.3 °F 32.0 °F 82% 29.72 in 10.0 mi WSW 4.6 mph - N/A   Clear
5:53 AM 37.0 °F 34.5 °F 33.1 °F 86% 29.72 in 10.0 mi West 3.5 mph - N/A   Clear
6:53 AM 37.0 °F - 32.0 °F 82% 29.72 in 10.0 mi Calm Calm - N/A   Clear
7:53 AM 37.0 °F - 33.1 °F 86% 29.71 in 10.0 mi Calm Calm - N/A   Clear
8:53 AM 39.0 °F 36.8 °F 34.0 °F 82% 29.70 in 10.0 mi NW 3.5 mph - N/A   Clear
9:53 AM 46.9 °F - 35.1 °F 63% 29.65 in 10.0 mi North 3.5 mph - N/A   Clear
10:53 AM 55.0 °F - 35.1 °F 47% 29.60 in 10.0 mi NNE 5.8 mph - N/A   Clear
11:53 AM 57.9 °F - 35.1 °F 42% 29.56 in 10.0 mi North 4.6 mph - N/A   Clear
12:53 PM 64.9 °F - 34.0 °F 32% 29.52 in 10.0 mi NE 3.5 mph - N/A   Clear
1:53 PM 73.0 °F - 24.1 °F 16% 29.47 in 10.0 mi SE 13.8 mph - N/A   Clear
2:53 PM 73.9 °F - 24.1 °F 16% 29.43 in 10.0 mi SSE 9.2 mph - N/A   Clear
3:53 PM 73.9 °F - 25.0 °F 16% 29.43 in 10.0 mi South 5.8 mph - N/A   Clear
4:53 PM 72.0 °F - 28.0 °F 20% 29.42 in 10.0 mi South 8.1 mph - N/A   Clear
5:53 PM 70.0 °F - 28.0 °F 21% 29.42 in 10.0 mi Calm Calm - N/A   Clear
6:53 PM 64.0 °F - 30.9 °F 29% 29.45 in 10.0 mi NNW 11.5 mph - N/A   Clear
7:53 PM 60.1 °F - 32.0 °F 35% 29.48 in 10.0 mi WNW 5.8 mph - N/A   Clear
8:53 PM 60.1 °F - 30.0 °F 32% 29.51 in 10.0 mi NNW 10.4 mph - N/A   Clear
9:53 PM 57.0 °F - 30.0 °F 36% 29.50 in 10.0 mi NNW 12.7 mph - N/A   Clear
10:53 PM 57.9 °F - 30.9 °F 36% 29.49 in 10.0 mi NW 17.3 mph - N/A   Scattered Clouds
11:53 PM 57.0 °F - 32.0 °F 39% 29.51 in 10.0 mi NW 19.6 mph - N/A   Overcast